When you browse on this site, cookies collect data to enhance your experience and personalize the content and advertising you see.
Visit our Privacy Policy to learn more. By continuing to use the site, you agree to this use of cookies and data.
  • In Sweden
  • List of Countries
  • For 7 days
  • Water Temperature
  • Satellite Maps
  • Weather Map
  • Weather Widgets
  • user-avatar
    Login

    Hourly Weather Debsko

    Today, 20 July, Saturday

    Time Temperature Precipitation Wind Pressure Humidity
    00:00 +17°C° 0.1 mm 2 mps 744 mmHg 94%
    01:00 +16°C° 0.1 mm 2 mps 745 mmHg 94%
    02:00 +16°C° 0 mm 2 mps 745 mmHg 94%
    03:00 +16°C° 0 mm 2 mps 745 mmHg 94%
    04:00 +16°C° 0 mm 2 mps 745 mmHg 95%
    05:00 +17°C° 0 mm 2 mps 745 mmHg 90%
    06:00 +19°C° 0 mm 2 mps 745 mmHg 85%
    07:00 +20°C° 0 mm 2 mps 745 mmHg 80%
    08:00 +23°C° 0 mm 2 mps 745 mmHg 72%
    09:00 +24°C° 0 mm 2 mps 746 mmHg 64%
    10:00 +25°C° 0 mm 2 mps 746 mmHg 57%
    11:00 +26°C° 0 mm 2 mps 745 mmHg 54%
    12:00 +27°C° 0 mm 2 mps 745 mmHg 51%
    13:00 +28°C° 0 mm 2 mps 745 mmHg 49%
    14:00 +28°C° 0 mm 2 mps 745 mmHg 49%
    15:00 +28°C° 0 mm 2 mps 745 mmHg 49%
    16:00 +28°C° 0 mm 2 mps 745 mmHg 49%
    17:00 +27°C° 0 mm 1 mps 745 mmHg 53%
    18:00 +26°C° 0 mm 1 mps 745 mmHg 56%
    19:00 +23°C° 0 mm 0 mps 745 mmHg 60%
    20:00 +24°C° 0 mm 1 mps 745 mmHg 61%
    21:00 +24°C° 0 mm 1 mps 746 mmHg 62%
    22:00 +23°C° 0 mm 2 mps 746 mmHg 64%
    23:00 +21°C° 0 mm 2 mps 746 mmHg 66%

    Tomorrow, 21 July, Sunday

    Time Temperature Precipitation Wind Pressure Humidity
    00:00 +21°C° 0 mm 2 mps 746 mmHg 68%
    01:00 +21°C° 0 mm 2 mps 746 mmHg 70%
    02:00 +20°C° 0 mm 2 mps 745 mmHg 74%
    03:00 +19°C° 0 mm 2 mps 745 mmHg 79%
    04:00 +19°C° 0 mm 2 mps 745 mmHg 83%
    05:00 +20°C° 0.1 mm 3 mps 745 mmHg 80%
    06:00 +21°C° 0.1 mm 3 mps 745 mmHg 77%
    07:00 +23°C° 0.1 mm 4 mps 745 mmHg 75%
    08:00 +25°C° 0.1 mm 4 mps 745 mmHg 70%
    09:00 +27°C° 0.1 mm 4 mps 745 mmHg 65%
    10:00 +28°C° 0.1 mm 4 mps 745 mmHg 60%
    11:00 +29°C° 1.2 mm 5 mps 745 mmHg 60%
    12:00 +29°C° 1.2 mm 5 mps 745 mmHg 60%
    13:00 +29°C° 1.2 mm 5 mps 745 mmHg 59%
    14:00 +28°C° 1.1 mm 5 mps 745 mmHg 61%
    15:00 +28°C° 1.1 mm 5 mps 745 mmHg 62%
    16:00 +27°C° 1.1 mm 5 mps 746 mmHg 64%
    17:00 +26°C° 0.4 mm 5 mps 746 mmHg 69%
    18:00 +23°C° 0.4 mm 4 mps 746 mmHg 74%
    19:00 +22°C° 0.4 mm 4 mps 746 mmHg 79%
    20:00 +21°C° 0.4 mm 4 mps 746 mmHg 81%
    21:00 +20°C° 0.4 mm 3 mps 747 mmHg 84%
    22:00 +19°C° 0.4 mm 3 mps 747 mmHg 87%
    23:00 +18°C° 0 mm 3 mps 748 mmHg 89%

    Day after tomorrow, 22 July, Monday

    Time Temperature Precipitation Wind Pressure Humidity
    00:00 +18°C° 0 mm 3 mps 748 mmHg 90%
    01:00 +17°C° 0 mm 3 mps 748 mmHg 91%
    02:00 +17°C° 0 mm 3 mps 748 mmHg 93%
    03:00 +17°C° 0 mm 3 mps 748 mmHg 94%
    04:00 +16°C° 0 mm 3 mps 749 mmHg 95%
    05:00 +17°C° 0 mm 3 mps 749 mmHg 90%
    06:00 +18°C° 0 mm 4 mps 749 mmHg 85%
    07:00 +19°C° 0 mm 5 mps 749 mmHg 80%
    08:00 +20°C° 0 mm 5 mps 750 mmHg 74%
    09:00 +21°C° 0 mm 6 mps 750 mmHg 69%
    10:00 +22°C° 0 mm 6 mps 750 mmHg 63%
    11:00 +23°C° 0 mm 6 mps 750 mmHg 59%
    12:00 +23°C° 0 mm 6 mps 750 mmHg 55%
    13:00 +24°C° 0 mm 7 mps 750 mmHg 51%
    14:00 +24°C° 0 mm 6 mps 749 mmHg 51%
    15:00 +23°C° 0 mm 6 mps 749 mmHg 52%
    16:00 +23°C° 0 mm 6 mps 749 mmHg 52%
    17:00 +22°C° 0 mm 5 mps 749 mmHg 56%
    18:00 +21°C° 0 mm 4 mps 749 mmHg 61%
    19:00 +20°C° 0 mm 3 mps 749 mmHg 66%
    20:00 +19°C° 0 mm 3 mps 749 mmHg 68%
    21:00 +18°C° 0 mm 3 mps 749 mmHg 71%
    22:00 +17°C° 0 mm 3 mps 749 mmHg 73%
    23:00 +16°C° 0 mm 3 mps 749 mmHg 75%

    23 July, Tuesday

    Time Temperature Precipitation Wind Pressure Humidity
    00:00 +16°C° 0 mm 3 mps 749 mmHg 76%
    01:00 +14°C° 0 mm 3 mps 749 mmHg 78%
    02:00 +14°C° 0 mm 3 mps 749 mmHg 80%
    03:00 +14°C° 0 mm 3 mps 749 mmHg 81%
    04:00 +13°C° 0 mm 3 mps 749 mmHg 83%
    05:00 +16°C° 0 mm 3 mps 749 mmHg 79%
    06:00 +17°C° 0 mm 4 mps 749 mmHg 75%
    07:00 +19°C° 0 mm 4 mps 749 mmHg 70%
    08:00 +20°C° 0 mm 5 mps 749 mmHg 66%
    09:00 +21°C° 0 mm 5 mps 749 mmHg 61%
    10:00 +22°C° 0 mm 5 mps 749 mmHg 56%
    11:00 +23°C° 0 mm 5 mps 749 mmHg 55%
    12:00 +23°C° 0 mm 5 mps 749 mmHg 55%
    13:00 +24°C° 0 mm 6 mps 748 mmHg 54%
    14:00 +25°C° 0 mm 5 mps 748 mmHg 57%
    15:00 +23°C° 0 mm 5 mps 748 mmHg 59%
    16:00 +23°C° 0 mm 4 mps 748 mmHg 61%
    17:00 +23°C° 0 mm 4 mps 748 mmHg 64%
    18:00 +22°C° 0 mm 3 mps 748 mmHg 68%
    19:00 +21°C° 0 mm 2 mps 748 mmHg 71%
    20:00 +21°C° 0 mm 2 mps 748 mmHg 72%
    21:00 +21°C° 0 mm 2 mps 748 mmHg 72%
    22:00 +21°C° 0 mm 1 mps 748 mmHg 73%
    23:00 +20°C° 0 mm 2 mps 748 mmHg 75%

    24 July, Wednesday

    Time Temperature Precipitation Wind Pressure Humidity
    00:00 +19°C° 0 mm 2 mps 748 mmHg 78%
    01:00 +19°C° 0 mm 2 mps 748 mmHg 80%
    02:00 +18°C° 0 mm 2 mps 747 mmHg 84%
    03:00 +18°C° 0 mm 2 mps 747 mmHg 87%
    04:00 +17°C° 0 mm 2 mps 747 mmHg 91%
    05:00 +19°C° 0 mm 3 mps 747 mmHg 85%
    06:00 +20°C° 0 mm 3 mps 747 mmHg 80%
    07:00 +22°C° 0 mm 4 mps 748 mmHg 75%
    08:00 +23°C° 0 mm 4 mps 747 mmHg 69%
    09:00 +26°C° 0 mm 4 mps 747 mmHg 64%
    10:00 +27°C° 0 mm 4 mps 747 mmHg 58%
    11:00 +28°C° 0 mm 5 mps 747 mmHg 55%
    12:00 +29°C° 0 mm 5 mps 747 mmHg 53%
    13:00 +29°C° 0 mm 5 mps 747 mmHg 51%
    14:00 +29°C° 0 mm 5 mps 747 mmHg 52%
    15:00 +29°C° 0 mm 5 mps 747 mmHg 52%
    16:00 +29°C° 0 mm 4 mps 747 mmHg 53%
    17:00 +28°C° 0 mm 4 mps 747 mmHg 59%
    18:00 +27°C° 0 mm 3 mps 747 mmHg 65%
    19:00 +26°C° 0 mm 2 mps 747 mmHg 70%
    20:00 +24°C° 0 mm 1 mps 747 mmHg 74%
    21:00 +23°C° 0 mm 1 mps 747 mmHg 78%
    22:00 +20°C° 0 mm 0 mps 748 mmHg 82%
    23:00 +20°C° 0 mm 0 mps 748 mmHg 83%

    25 July, Thursday

    Time Temperature Precipitation Wind Pressure Humidity
    00:00 +19°C° 0 mm 0 mps 748 mmHg 84%
    01:00 +19°C° 0 mm 0 mps 748 mmHg 85%
    02:00 +21°C° 0 mm 1 mps 748 mmHg 86%
    03:00 +20°C° 0 mm 1 mps 748 mmHg 87%
    04:00 +20°C° 0 mm 1 mps 748 mmHg 89%
    05:00 +22°C° 0 mm 1 mps 748 mmHg 82%
    06:00 +23°C° 0 mm 1 mps 748 mmHg 75%
    07:00 +25°C° 0 mm 2 mps 749 mmHg 68%
    08:00 +27°C° 0 mm 2 mps 749 mmHg 61%
    09:00 +28°C° 0 mm 2 mps 749 mmHg 54%
    10:00 +30°C° 0 mm 2 mps 749 mmHg 47%
    11:00 +30°C° 0 mm 3 mps 749 mmHg 43%
    12:00 +31°C° 0 mm 3 mps 749 mmHg 38%
    13:00 +33°C° 0 mm 3 mps 748 mmHg 34%
    14:00 +33°C° 0 mm 3 mps 748 mmHg 34%
    15:00 +33°C° 0 mm 3 mps 748 mmHg 34%
    16:00 +33°C° 0 mm 3 mps 748 mmHg 35%
    17:00 +30°C° 0 mm 3 mps 748 mmHg 42%
    18:00 +28°C° 0 mm 3 mps 748 mmHg 50%
    19:00 +26°C° 0 mm 3 mps 748 mmHg 57%
    20:00 +25°C° 0 mm 3 mps 748 mmHg 63%
    21:00 +22°C° 0 mm 3 mps 748 mmHg 68%
    22:00 +21°C° 0 mm 2 mps 748 mmHg 73%
    23:00 +20°C° 0 mm 2 mps 749 mmHg 77%
    Show more